Regional Weather Roundup
Issued by NWS

Home | Current Version | Previous Version | Graphics & Text | Print | Product List | Glossary Off
Versions: 1 2 3 4 5 6 7 8 9 10 11 12 13 14 15 16 17 18 19 20 21 22 23 24 25 26 27 28 29 30 31 32 33 34 35 36 37 38 39 40 41 42 43 44 45 46 47 48 49 50

000
ASUS43 KMKX 191421
RWRWI

WISCONSIN REGIONAL WEATHER ROUNDUP
NATIONAL WEATHER SERVICE MILWAUKEE/SULLIVAN WI
900 AM CDT SAT AUG 19 2017

NOTE: "FAIR" INDICATES FEW OR NO CLOUDS BELOW 12,000 FEET WITH NO
SIGNIFICANT WEATHER AND/OR OBSTRUCTIONS TO VISIBILITY.

WIZ001-002-006>008-014>016-023>028-191500-
NORTHWEST WISCONSIN

CITY           SKY/WX    TMP DP  RH WIND       PRES   REMARKS
SUPERIOR ARPT    N/A     64  60  88 SW8       29.90S
ASHLAND        SUNNY     67  60  78 W10       29.89S
HAYWARD        SUNNY     61  59  93 SW5       29.94R
SIREN          SUNNY     65  61  86 W5        29.94S
CUMBERLAND     SUNNY     63  61  94 W7        29.96R
RICE LAKE      SUNNY     63  62  98 W6        29.97S FOG
CHETEK         SUNNY     62  62 100 CALM      29.95S
LADYSMITH      SUNNY     64  63  97 SW5       29.97R
EAU CLAIRE     SUNNY     65  61  87 SW5       29.95R
MENOMONIE      SUNNY     63  63 100 CALM      29.96S
NEW RICHMOND   SUNNY     63  63 100 CALM      29.96S
OSCEOLA        SUNNY     64  64 100 CALM      29.98S
$$

WIZ003>005-009-010-017-018-191500-
NORTH CENTRAL WISCONSIN

CITY           SKY/WX    TMP DP  RH WIND       PRES   REMARKS
MANITOWISH WTR SUNNY     63  63 100 W5        29.92S
ARBOR VITAE    SUNNY     64  60  87 W6        29.93R
WOODRUFF       SUNNY     64  60  87 W6        29.93R
RHINELANDER    SUNNY     65  60  84 W9        29.94S
EAGLE RIVER    SUNNY     64  61  89 W8        29.92S
LAND O LAKES   SUNNY     64  59  85 W6        29.93S
PHILLIPS       SUNNY     63  60  91 SW5       29.94R
TOMAHAWK         N/A     62  60  92 W5        29.94S
MEDFORD        MOSUNNY   62  61  96 W3        29.96R
MERRILL        SUNNY     66  61  82 W5        29.95S
$$

WIZ029-030-035-036-043>047-191500-
CENTRAL WISCONSIN

CITY           SKY/WX    TMP DP  RH WIND       PRES   REMARKS
WAUSAU         SUNNY     65  60  84 W6        29.94R
MOSINEE        MOSUNNY   66  63  88 W5        29.96S
MARSHFIELD     SUNNY     66  60  81 W5        29.96R
STEVENS POINT  SUNNY     63  61  91 W7        29.96S
WAUPACA        SUNNY     71  62  72 NW5       29.94F
WAUTOMA        SUNNY     68  62  81 NW5       29.96
WISC RAPIDS    MOSUNNY   63  62  97 CALM      29.97S
CAMP DOUGLAS   SUNNY     66  66 100 CALM      29.96S
$$

WIZ011>013-019>022-031-037>040-048>050-191500-
NORTHEAST WISCONSIN

CITY           SKY/WX    TMP DP  RH WIND       PRES   REMARKS
ANTIGO         MOSUNNY   64  61  88 W7        29.95S
SHAWANO        SUNNY     70  64  80 W7        29.92S
OCONTO         MOSUNNY   66  62  87 W9        29.90S
STURGEON BAY   CLOUDY    64  61  90 W10       29.91R
GREEN BAY      PTSUNNY   67  65  93 W7        29.92F
MANITOWOC      CLOUDY    65  61  87 W8        29.93S FOG
APPLETON       PTSUNNY   64  64 100 W6        29.93S FOG
CLINTONVILLE   MOSUNNY   68  63  83 W7        29.93S
OSHKOSH        CLOUDY    66  62  87 W8        29.94S FOG
$$

WIZ032>034-041-042-053>061-191500-
SOUTHWEST WISCONSIN

CITY           SKY/WX    TMP DP  RH WIND       PRES   REMARKS
LA CROSSE      CLOUDY    63  62  97 VRB3      29.97R FOG
SPARTA         PTSUNNY   56  56 100 CALM      29.97S
VIROQUA        SUNNY     67  61  79 CALM      29.98R
BOSCOBEL       FOG       60  60 100 CALM      29.98S VSB<1/4
PRAIRIE DU CHI FOG       59  58  96 CALM      29.98S VSB<1/4
PLATTEVILLE    SUNNY     65  65 100 CALM      29.99R
$$

WIZ056-057-062-063-064-067-068-191500-
SOUTH CENTRAL WISCONSIN

CITY           SKY/WX    TMP DP  RH WIND       PRES   REMARKS
REEDSBURG      SUNNY     65  62  90 CALM      29.96S
BARABOO/DELLS  SUNNY     66  60  81 NW3       29.97S
LONE ROCK      FOG       60  60 100 CALM      29.98R VSB 1/4
MINERAL POINT  SUNNY     68  68 100 CALM      29.98S
MADISON        SUNNY     68  63  84 VRB3      29.96S
MIDDLETON      SUNNY     68  67  95 CALM      29.98R
WATERTOWN      CLOUDY    63  63 100 N5        29.96R FOG
MONROE         SUNNY     66  61  82 CALM      29.98S
JANESVILLE     SUNNY     66  66 100 CALM      29.95S
$$

WIZ051-052-058>065-066-070>072-191500-
SOUTHEAST WISCONSIN

CITY           SKY/WX    TMP DP  RH WIND       PRES   REMARKS
MILWAUKEE      SUNNY     70  62  76 NW6       29.94S
WAUKESHA       CLOUDY    63  61  94 W3        29.97R FOG
MILWAUKEE/TIMM MOSUNNY   66  59  77 W5        29.95S
RACINE         SUNNY     70  63  78 CALM      29.96S
KENOSHA        SUNNY     70  62  76 CALM      29.95S
FOND DU LAC    CLOUDY    66  62  87 NW5       29.96R
SHEBOYGAN      MOSUNNY   68  65  90 W8        29.94S
WEST BEND      CLOUDY    66  63  88 NW7       29.95S
JUNEAU         CLOUDY    64  62  95 W3        29.97S FOG
$$

LSZ147-162-191500-
LAKE SUPERIOR

STATION/POSITION TIME  TEMP    WIND        PRES    WAVE
                       AIR SEA DIR/SP/G            HT/PER
                 (UTC) (F)     (DEG/KT/KT) (MB)    (FT/S)
W MID LAKE BUOY  1350   60 59  250/ 14/ 16 1010.2R   2/ 4
DEVILS ISLAND    1400   61     240/ 16/ 19 1011.3R
SAXON HARBOR     1330   66     200/  6/  9 1011.5S
$$

LMZ867-665-643>646-191500-
LAKE MICHIGAN

STATION/POSITION TIME  TEMP    WIND        PRES    WAVE
                       AIR SEA DIR/SP/G            HT/PER
                 (UTC) (F)     (DEG/KT/KT) (MB)    (FT/S)
S GREEN BAY BUOY 1400   65 70  240/ 10/ 12 1012.4
N MID LAKE BUOY  1350   66 66  230/ 10/ 12 1011.8F   1
NORTHPORT PIER   1340   71     270/  2/  4 1011.5F
KEWAUNEE LAKESHO 1354   64     280/  7/ 12 1011.9F
SHEBOYGAN LAKESH 1400   67     270/ 11/ 13 1013.1R
PORT WASHINGTON  1330   69     300/  7/ 10 1014.2F
ATWATER BUOY     1309   66 70  310/  4/  6 1014.0S
MILWAUKEE LAKESH 1400   68     260/  5/  5   N/A
S MID LAKE BUOY  1350   68 71  340/  6/  8 1013.9R   1/ 3
KENOSHA   LAKESH 1400   68      CALM  /  2 1014.2
$$

TC  - TEMPERATURE IN CELSIUS
VSB - VISIBILITY IN STATUTE MILES
WCI - WIND CHILL INDEX
HX  - HEAT INDEX





USA.gov is the U.S. government's official web portal to all federal, state and local government web resources and services.